User: anonymous   Login
Location: Chipmunk Meadow
(41.1540°N, 122.8814°W)
Time: 15:04:32
(UTC+00:00)
Language:

Cosmos 1656 Rocket - Orbit

View from above orbital plane
View from above orbital plane
View from above satellite
View from above satellite

Ground track
Ground track

The orbit data is extracted from the following two-line orbital elements,

1 15772U 85042D   24173.91782067  .00000194  00000-0  10921-3 0  9998
2 15772  71.1087 329.4910 0034731  16.3508  99.2690 14.21637159 25446
Epoch (UTC): 21 June 2024 22:01:39
Eccentricity: 0.0034731
inclination: 71.1087°
perigee height: 795 km
apogee height: 845 km
right ascension of ascending node: 329.4910°
argument of perigee: 16.3508°
revolutions per day: 14.21637159
mean anomaly at epoch: 99.2690°
orbit number at epoch: 2544

The dashed part of the orbit path shows where the satellite is in the earth's shadow,  

DLR